Date,TemperatureHighF,TemperatureAvgF,TemperatureLowF,DewpointHighF,DewpointAvgF,DewpointLowF,HumidityHigh,HumidityAvg,HumidityLow,PressureMaxIn,PressureMinIn,WindSpeedMaxMPH,WindSpeedAvgMPH,GustSpeedMaxMPH,PrecipitationSumIn
2013-1-1,32,26,16,30,22,12,92,85,78,30.10,29.98,5,1,0,0.03
2013-1-2,20,14,8,16,10,4,88,85,81,30.22,30.08,7,1,0,0.00
2013-1-3,29,22,12,25,17,8,85,80,75,30.22,30.13,14,5,0,0.00
2013-1-4,29,23,16,24,18,11,84,81,79,30.25,30.18,17,8,0,0.00
2013-1-5,35,28,20,31,24,16,87,84,80,30.28,30.06,13,4,0,0.01
2013-1-6,36,32,26,32,28,23,87,85,84,30.26,29.93,14,6,0,0.01
2013-1-7,34,29,24,29,25,21,89,85,81,30.40,30.17,12,3,0,0.00
2013-1-8,39,32,25,33,27,21,85,82,77,30.25,30.15,11,2,0,0.00
2013-1-9,44,39,34,38,34,29,85,82,78,30.45,30.08,13,6,0,0.00
2013-1-10,41,35,27,35,31,24,92,83,77,30.49,30.06,4,0,0,0.00
2013-1-11,59,51,40,55,47,34,92,86,76,30.06,29.75,19,4,0,0.64
2013-1-12,60,54,50,56,51,46,93,88,85,29.92,29.66,10,3,0,1.12
2013-1-13,61,43,32,59,41,30,94,94,92,30.04,29.60,15,2,0,1.20
2013-1-14,32,24,20,30,21,17,92,87,84,30.42,30.06,10,2,0,0.00
2013-1-15,30,26,20,24,21,17,88,82,76,30.39,30.08,7,2,0,0.00
2013-1-16,35,30,25,29,25,22,89,83,77,30.08,29.87,12,5,0,0.00
2013-1-17,40,32,22,34,26,15,87,80,72,30.32,29.99,14,4,0,0.00
2013-1-18,38,29,21,28,22,15,82,75,67,30.44,30.03,25,7,0,0.00
2013-1-19,50,43,37,37,32,27,72,66,61,30.04,29.71,22,12,0,0.00
2013-1-20,45,27,20,36,17,11,73,68,62,30.17,29.70,20,6,0,0.00
2013-1-21,20,17,9,12,7,-2,71,65,60,30.17,30.02,17,6,0,0.00
2013-1-22,14,10,5,3,-1,-4,67,64,59,30.32,30.16,13,5,0,0.00
2013-1-23,20,15,8,13,6,-1,80,67,59,30.31,30.06,12,4,0,0.00
2013-1-24,22,16,7,14,9,2,85,73,64,30.58,30.07,10,2,0,0.00
2013-1-25,24,21,18,20,15,10,84,76,68,30.44,29.99,9,2,0,0.02
2013-1-26,28,24,18,22,20,14,85,82,75,30.42,30.04,6,1,0,0.00
2013-1-27,34,26,18,30,21,14,92,80,76,30.43,30.07,14,1,0,0.02
2013-1-28,50,45,34,47,42,30,94,91,86,30.08,29.88,17,6,0,0.26
2013-1-29,62,55,48,58,53,46,95,92,86,29.94,29.40,20,7,0,0.00
2013-1-30,64,51,32,59,47,28,93,89,84,29.40,29.13,20,8,0,0.59
2013-1-31,32,23,15,28,18,9,85,80,75,29.95,29.37,24,10,0,0.00
2013-2-1,15,12,8,8,6,2,78,76,74,30.32,29.96,16,8,0,0.00
2013-2-2,26,21,14,22,17,8,88,84,76,30.26,29.94,20,5,0,0.00
2013-2-3,21,18,15,16,14,11,88,85,81,30.05,29.90,12,3,0,0.00
2013-2-4,29,23,15,26,20,11,90,87,84,30.05,29.80,6,1,0,0.07
2013-2-5,31,25,16,29,23,13,91,89,83,29.95,29.79,11,2,0,0.01
2013-2-6,34,29,25,28,22,18,92,77,66,30.24,29.97,4,1,0,0.02
2013-2-7,46,36,25,37,29,20,82,77,70,30.20,29.71,6,1,0,0.01
2013-2-8,40,32,22,36,28,18,90,85,80,30.30,29.71,19,4,0,0.13
2013-2-9,35,27,18,27,21,14,87,80,70,30.41,30.21,4,0,0,0.00
2013-2-10,49,39,28,42,32,23,84,75,68,30.21,29.66,14,3,0,0.02
2013-2-11,48,39,33,44,33,25,89,80,74,29.92,29.58,21,10,0,0.00
2013-2-12,41,33,28,33,26,24,84,77,72,30.06,29.90,15,4,0,0.00
2013-2-13,37,31,27,31,26,23,85,82,77,29.89,29.72,6,1,0,0.00
2013-2-14,45,37,33,40,33,29,89,83,78,29.89,29.69,20,6,0,0.00
2013-2-15,35,30,22,29,25,16,84,80,75,30.11,29.88,9,2,0,0.00
2013-2-16,26,22,16,22,17,9,86,81,74,30.09,29.98,13,2,0,0.00
2013-2-17,28,20,14,18,13,9,83,74,62,30.20,30.06,9,2,0,0.00
2013-2-18,53,37,21,42,28,13,75,69,63,30.17,29.58,20,6,0,0.03
2013-2-19,45,27,18,40,22,11,85,80,77,30.04,29.47,23,11,0,0.07
2013-2-20,24,20,16,17,14,9,79,75,72,30.26,30.04,15,6,0,0.00
2013-2-21,28,24,22,21,18,16,78,77,73,30.34,30.14,11,2,0,0.00
2013-2-22,38,31,23,36,28,18,92,87,78,30.12,29.84,11,3,0,0.08
2013-2-23,34,31,28,31,26,22,90,82,76,29.93,29.86,11,4,0,0.00
2013-2-24,38,30,26,29,24,21,81,77,69,30.12,29.90,11,2,0,0.00
2013-2-25,44,33,22,33,26,19,89,78,65,30.17,29.97,10,2,0,0.00
2013-2-26,37,33,29,35,29,24,93,86,78,29.97,29.37,12,3,0,1.11
2013-2-27,38,35,32,37,33,30,94,93,90,29.59,29.38,17,7,0,0.31
2013-2-28,38,34,32,36,32,30,96,92,88,29.89,29.55,12,3,0,0.07
2013-3-1,34,30,26,31,26,21,91,85,80,30.05,29.89,11,3,0,0.00
2013-3-2,28,27,26,22,21,20,83,80,77,30.04,30.00,10,2,0,0.00
2013-3-3,33,27,24,23,20,18,81,73,64,30.04,29.98,12,3,0,0.00
2013-3-4,38,29,19,26,21,15,83,73,61,30.12,30.00,4,0,0,0.00
2013-3-5,35,32,29,29,27,25,90,82,70,30.04,29.62,14,4,0,0.01
2013-3-6,35,31,28,32,28,25,92,90,85,30.19,29.65,15,4,0,0.12
2013-3-7,39,34,31,34,30,26,89,83,75,30.34,30.17,7,1,0,0.00
2013-3-8,42,33,24,32,26,20,86,75,65,30.45,30.34,5,1,0,0.00
2013-3-9,48,39,28,39,32,23,84,77,68,30.36,29.95,7,1,0,0.00
2013-3-10,63,54,45,48,42,36,72,64,56,29.95,29.73,15,3,0,0.01
2013-3-11,58,49,36,48,43,32,87,79,62,29.73,29.45,19,8,0,0.42
2013-3-12,38,34,32,32,29,26,86,82,75,29.93,29.73,16,7,0,0.00
2013-3-13,34,29,26,29,24,19,84,79,74,30.24,29.90,16,5,0,0.00
2013-3-14,41,31,23,28,23,18,81,72,59,30.28,30.09,10,3,0,0.00
2013-3-15,47,38,30,40,33,24,89,81,73,30.09,29.74,11,3,0,0.18
2013-3-16,42,36,32,40,34,30,93,91,89,30.00,29.58,11,2,0,0.00
2013-3-17,33,31,28,30,26,23,89,81,77,30.17,30.00,12,4,0,0.00
2013-3-18,40,34,29,38,31,23,93,88,79,30.04,29.50,12,4,0,0.08
2013-3-19,36,31,25,34,24,19,91,75,66,29.97,29.70,22,10,0,0.01
2013-3-20,32,27,21,22,18,11,73,67,60,29.97,29.90,14,5,0,0.00
2013-3-21,32,24,17,23,17,11,80,72,66,29.96,29.90,12,2,0,0.00
2013-3-22,42,30,20,28,20,14,82,70,54,30.00,29.94,11,2,0,0.00
2013-3-23,44,33,24,31,24,18,81,69,58,30.04,29.93,6,1,0,0.00
2013-3-24,36,32,28,28,24,22,80,74,67,29.92,29.47,28,6,0,0.00
2013-3-25,34,32,29,32,29,24,93,90,80,29.87,29.41,11,4,0,0.30
2013-3-26,40,35,32,34,31,29,92,84,75,30.13,29.87,7,2,0,0.00
2013-3-27,41,35,32,35,30,28,87,83,74,30.22,30.13,10,2,0,0.00
2013-3-28,47,38,28,36,30,23,83,73,62,30.27,30.22,13,4,0,0.00
2013-3-29,52,39,28,36,30,24,86,71,51,30.27,30.15,10,1,0,0.00
2013-3-30,55,44,28,38,32,22,81,63,50,30.18,29.88,10,1,0,0.00
2013-3-31,59,48,42,47,39,32,84,70,58,29.87,29.62,16,4,0,0.01
2013-4-1,44,36,27,34,24,14,77,61,47,30.09,29.71,15,4,0,0.00
2013-4-2,44,32,23,25,18,11,74,59,41,30.23,30.08,14,2,0,0.00
2013-4-3,46,35,22,25,17,12,69,51,35,30.38,30.23,9,1,0,0.00
2013-4-4,57,41,28,29,22,14,61,48,32,30.31,29.92,6,1,0,0.00
2013-4-5,54,44,35,37,27,19,65,53,35,30.11,29.90,11,2,0,0.00
2013-4-6,60,48,35,37,28,19,62,48,40,30.17,29.76,12,3,0,0.00
2013-4-7,67,60,51,48,43,36,61,53,46,29.91,29.66,21,7,0,0.00
2013-4-8,72,58,42,58,47,33,79,67,57,29.91,29.71,23,6,0,0.15
2013-4-9,80,67,52,63,54,46,82,66,52,29.96,29.77,23,4,0,0.00
2013-4-10,68,56,45,63,51,43,91,83,65,29.83,29.71,11,2,0,1.66
2013-4-11,46,44,42,44,42,39,94,92,91,29.83,29.49,11,4,0,0.91
2013-4-12,43,41,40,42,38,35,94,87,77,29.81,29.46,16,7,0,0.11
2013-4-13,43,40,38,38,35,32,88,82,74,29.96,29.81,14,5,0,0.02
2013-4-14,64,50,38,51,42,32,84,74,63,30.03,29.81,5,1,0,0.00
2013-4-15,69,61,50,57,51,42,78,70,64,29.89,29.79,16,4,0,0.00
2013-4-16,62,55,50,55,50,47,91,85,75,30.13,29.81,9,2,0,0.73
2013-4-17,62,53,46,57,49,42,95,85,81,30.19,29.89,10,3,0,0.08
2013-4-18,79,64,48,68,58,42,89,81,66,29.92,29.51,28,5,0,0.07
2013-4-19,68,44,34,62,39,30,90,82,75,29.82,29.35,23,10,0,0.27
2013-4-20,45,38,33,33,30,23,85,73,58,30.39,29.82,14,5,0,0.02
2013-4-21,51,40,29,35,29,20,74,64,53,30.53,30.38,6,1,0,0.00
2013-4-22,67,51,33,45,37,27,83,62,41,30.37,30.08,5,0,0,0.00
2013-4-23,70,58,47,54,47,38,85,67,51,30.08,29.73,16,3,0,0.11
2013-4-24,60,44,36,54,40,30,90,85,75,30.13,29.65,14,4,0,0.73
2013-4-25,53,44,36,41,35,31,83,73,55,30.32,30.12,20,5,0,0.00
2013-4-26,61,48,33,42,36,29,85,66,45,30.40,30.29,6,1,0,0.00
2013-4-27,70,57,40,47,40,33,75,55,37,30.30,29.99,11,1,0,0.00
2013-4-28,61,58,54,57,52,45,90,82,61,29.99,29.73,11,1,0,0.43
2013-4-29,67,60,55,60,55,51,93,86,74,29.89,29.78,9,1,0,0.00
2013-4-30,78,64,52,63,56,49,92,75,56,29.97,29.87,8,1,0,0.00
2013-5-1,83,72,58,65,58,52,81,64,47,30.09,29.97,6,0,0,0.00
2013-5-2,76,69,61,59,55,51,71,62,53,30.13,30.01,5,1,0,0.00
2013-5-3,79,70,62,60,54,43,75,59,41,30.01,29.89,7,1,0,0.00
2013-5-4,75,66,59,49,46,42,60,49,40,29.95,29.87,6,1,0,0.00
2013-5-5,75,64,55,52,46,43,65,54,43,29.95,29.87,9,1,0,0.00
2013-5-6,71,64,55,56,49,43,66,60,54,29.92,29.85,5,1,0,0.00
2013-5-7,74,65,54,59,53,47,77,67,57,29.94,29.86,10,2,0,0.00
2013-5-8,78,65,53,59,54,47,84,67,47,29.92,29.84,6,0,0,0.01
2013-5-9,80,68,56,62,55,51,83,65,43,29.91,29.83,10,1,0,0.00
2013-5-10,69,64,52,63,58,47,87,82,73,29.85,29.67,11,3,0,0.28
2013-5-11,57,49,41,51,44,36,86,83,78,29.91,29.75,13,2,0,0.07
2013-5-12,52,44,38,38,35,29,84,70,54,30.07,29.91,14,2,0,0.01
2013-5-13,60,48,38,38,34,30,78,58,40,30.12,30.04,7,1,0,0.00
2013-5-14,84,64,46,61,47,32,62,54,46,30.05,29.66,18,3,0,0.00
2013-5-15,86,77,70,62,59,53,67,54,39,29.71,29.61,14,6,0,0.00
2013-5-16,83,72,59,56,51,46,73,51,31,29.86,29.69,7,0,0,0.00
2013-5-17,84,68,53,62,51,44,72,55,37,30.00,29.87,9,1,0,0.00
2013-5-18,80,67,57,62,51,40,64,57,48,30.01,29.91,5,0,0,0.00
2013-5-19,87,73,57,68,59,47,75,63,50,29.92,29.78,5,0,0,0.00
2013-5-20,88,78,69,72,67,62,84,69,54,29.85,29.73,18,3,0,0.00
2013-5-21,87,78,68,66,64,60,77,63,48,29.76,29.64,21,6,0,0.00
2013-5-22,79,71,64,67,62,55,81,72,61,29.69,29.59,20,5,0,0.05
2013-5-23,68,60,49,61,54,44,85,81,76,30.06,29.66,14,3,0,0.02
2013-5-24,64,54,45,46,42,36,84,67,46,30.26,30.06,11,2,0,0.00
2013-5-25,69,57,42,47,41,34,79,57,42,30.32,30.16,6,0,0,0.00
2013-5-26,71,60,46,44,39,33,66,47,34,30.26,30.11,4,0,0,0.00
2013-5-27,69,60,51,58,47,35,86,65,40,30.16,29.87,6,1,0,0.69
2013-5-28,81,72,60,71,65,56,90,79,67,29.88,29.78,26,5,0,0.13
2013-5-29,86,78,70,69,64,60,72,64,52,29.92,29.82,20,6,0,0.00
2013-5-30,88,79,70,71,66,58,79,66,53,29.99,29.85,28,3,0,0.03
2013-5-31,79,74,69,70,66,64,87,76,67,29.92,29.79,19,4,0,0.21
2013-6-1,78,70,63,70,65,59,92,84,74,29.88,29.64,19,2,0,1.54
2013-6-2,72,66,55,65,60,49,86,80,72,29.89,29.64,12,4,0,0.00
2013-6-3,68,59,52,53,48,44,84,70,50,30.02,29.89,6,1,0,0.00
2013-6-4,74,62,47,53,48,42,84,62,46,30.11,30.01,7,1,0,0.00
2013-6-5,80,66,53,58,50,43,71,57,44,30.06,29.83,9,1,0,0.00
2013-6-6,71,62,58,59,52,46,82,70,57,29.85,29.73,7,2,0,0.00
2013-6-7,71,61,54,59,54,49,89,78,65,29.83,29.77,7,1,0,0.00
2013-6-8,78,65,50,59,54,47,92,68,48,29.95,29.83,5,0,0,0.00
2013-6-9,84,73,64,68,60,54,81,65,48,29.97,29.80,9,1,0,0.03
2013-6-10,79,70,66,70,64,61,91,81,65,29.80,29.64,10,2,0,0.44
2013-6-11,84,73,64,70,65,61,91,77,58,29.86,29.72,12,1,0,0.00
2013-6-12,90,78,67,76,69,62,87,76,61,29.82,29.52,10,1,0,0.01
2013-6-13,78,70,65,64,61,55,91,74,53,29.83,29.42,13,3,0,0.31
2013-6-14,78,68,58,62,58,54,88,71,55,29.99,29.84,6,1,0,0.00
2013-6-15,79,69,60,65,60,54,82,73,60,30.03,29.86,10,1,0,0.01
2013-6-16,80,72,66,70,66,62,88,81,70,29.86,29.80,12,3,0,0.29
2013-6-17,86,75,67,74,66,63,93,76,54,29.86,29.77,10,1,0,0.01
2013-6-18,78,70,63,67,62,56,84,75,63,29.94,29.75,11,1,0,0.00
2013-6-19,78,67,55,59,54,48,79,63,43,30.06,29.95,6,1,0,0.00
2013-6-20,84,72,55,64,58,48,79,62,50,30.11,30.04,4,0,0,0.00
2013-6-21,87,78,65,66,61,57,75,58,41,30.11,29.95,6,1,0,0.00
2013-6-22,91,79,70,73,67,59,78,67,56,30.02,29.90,15,2,0,0.00
2013-6-23,88,45,71,73,-6,-100,83,37,55,30.01,29.90,13,-440,0,0.00
2013-6-24,87,53,69,72,9,-100,82,43,58,30.00,29.87,11,-351,0,0.05
2013-6-25,90,79,68,77,70,62,88,74,58,29.91,29.73,15,4,0,0.01
2013-6-26,86,73,68,75,68,63,90,83,69,29.82,29.65,11,1,0,0.19
2013-6-27,86,76,70,74,70,65,93,82,67,29.67,29.57,11,1,0,0.08
2013-6-28,83,73,67,71,66,59,91,79,61,29.57,29.46,12,2,0,0.02
2013-6-29,76,67,62,68,63,58,91,85,72,29.59,29.45,3,0,0,0.12
2013-6-30,75,69,64,67,63,60,91,82,69,29.81,29.60,10,2,0,0.01
2013-7-1,68,64,61,64,60,55,91,85,80,29.91,29.79,12,2,0,0.73
2013-7-2,79,68,62,71,64,57,92,86,75,29.94,29.86,10,1,0,1.09
2013-7-3,82,73,65,72,67,63,95,83,67,30.01,29.93,9,1,0,0.00
2013-7-4,77,72,67,70,67,64,91,85,77,30.05,29.98,5,0,0,0.01
2013-7-5,82,74,68,73,69,66,94,83,70,30.03,29.97,9,1,0,0.03
2013-7-6,78,72,69,73,69,66,93,88,80,30.03,29.91,6,0,0,0.10
2013-7-7,82,72,67,73,67,65,93,87,70,30.00,29.91,9,1,0,0.00
2013-7-8,82,74,69,76,71,66,93,88,77,29.99,29.90,11,2,0,1.22
2013-7-9,88,79,73,80,74,69,92,84,75,29.93,29.83,11,2,0,0.00
2013-7-10,87,78,67,80,72,61,89,83,75,29.86,29.67,16,4,0,0.19
2013-7-11,78,70,62,64,60,57,87,73,56,29.96,29.85,11,1,0,0.00
2013-7-12,80,69,58,66,60,55,90,75,59,30.05,29.95,6,1,0,0.00
2013-7-13,84,74,61,71,65,57,89,75,62,30.08,30.01,6,1,0,0.00
2013-7-14,90,79,67,77,71,63,90,77,62,30.13,30.07,4,0,0,0.00
2013-7-15,91,82,74,76,74,70,87,76,62,30.20,30.12,9,1,0,0.00
2013-7-16,92,83,73,78,74,70,89,74,59,30.23,30.15,5,0,0,0.00
2013-7-17,92,81,73,77,73,69,89,76,60,30.22,30.07,5,0,0,0.00
2013-7-18,92,83,73,79,74,70,89,76,61,30.09,29.90,12,1,0,0.00
2013-7-19,91,83,74,79,74,70,87,75,62,29.91,29.72,17,4,0,0.00
2013-7-20,84,76,70,76,71,66,91,83,75,29.81,29.67,13,3,0,2.27
2013-7-21,86,76,66,75,69,64,93,80,61,29.89,29.79,4,0,0,0.01
2013-7-22,80,73,67,72,68,65,92,84,77,29.83,29.68,4,0,0,0.17
2013-7-23,85,74,65,75,68,58,93,82,65,29.75,29.61,14,2,0,0.01
2013-7-24,72,65,56,58,55,50,82,71,59,29.95,29.76,10,2,0,0.00
2013-7-25,76,66,53,61,56,49,89,71,55,30.03,29.95,6,0,0,0.00
2013-7-26,80,69,57,65,59,53,86,71,57,30.02,29.84,12,1,0,0.00
2013-7-27,77,68,58,69,61,52,90,80,61,29.86,29.69,16,2,0,0.03
2013-7-28,70,61,52,56,53,49,89,76,63,29.95,29.80,16,3,0,0.00
2013-7-29,74,63,53,61,55,49,85,76,63,30.10,29.94,9,1,0,0.00
2013-7-30,79,68,55,66,60,52,91,76,60,30.15,30.04,4,0,0,0.00
2013-7-31,75,70,66,68,64,61,93,84,77,30.03,29.84,11,1,0,0.07
2013-8-1,78,70,63,68,65,55,94,83,64,29.89,29.81,6,1,0,0.00
2013-8-2,81,66,57,73,61,53,91,84,73,29.94,29.78,10,1,0,1.25
2013-8-3,81,70,63,72,64,56,95,82,62,29.96,29.84,6,0,0,0.67
2013-8-4,76,66,55,62,57,52,89,74,57,30.09,29.95,9,1,0,0.00
2013-8-5,76,66,56,65,59,53,91,78,63,30.04,29.89,5,0,0,0.00
2013-8-6,80,72,64,69,64,59,84,77,69,29.90,29.81,12,2,0,0.00
2013-8-7,83,76,69,75,70,65,91,83,74,29.83,29.76,16,2,0,0.00
2013-8-8,75,72,69,70,68,66,92,88,85,29.88,29.80,5,1,0,0.00
2013-8-9,80,73,66,68,65,62,90,78,64,29.94,29.84,5,0,0,0.00
2013-8-10,83,72,65,71,66,62,90,80,66,30.01,29.94,7,1,0,0.00
2013-8-11,82,72,60,70,63,57,89,76,60,30.03,29.95,3,0,0,0.00
2013-8-12,85,73,63,72,66,60,90,78,65,29.99,29.76,8,1,0,0.00
2013-8-13,72,66,56,65,58,48,91,76,58,29.98,29.75,12,2,0,0.00
2013-8-14,72,59,48,55,50,44,88,74,56,30.11,29.98,7,0,0,0.00
2013-8-15,74,61,49,59,52,46,88,73,53,30.12,30.03,7,0,0,0.00
2013-8-16,77,66,57,61,56,50,83,70,56,30.10,30.05,6,0,0,0.00
2013-8-17,78,68,56,63,58,52,87,73,57,30.15,30.07,5,1,0,0.00
2013-8-18,81,70,58,68,59,54,89,71,51,30.12,30.02,6,0,0,0.00
2013-8-19,84,71,58,69,61,54,91,72,52,30.05,29.96,4,0,0,0.00
2013-8-20,86,74,61,71,64,57,89,72,54,30.08,29.99,5,0,0,0.00
2013-8-21,84,72,65,74,66,60,85,79,71,30.07,29.94,9,1,0,0.02
2013-8-22,79,72,66,73,67,62,89,86,81,30.00,29.90,9,1,0,0.06
2013-8-23,83,73,66,73,65,57,94,79,54,30.08,29.95,4,0,0,0.00
2013-8-24,84,71,56,65,59,52,88,68,49,30.21,30.09,5,0,0,0.00
2013-8-25,86,74,61,68,62,56,84,68,52,30.23,30.10,9,1,0,0.00
2013-8-26,86,75,64,74,66,57,81,74,62,30.14,29.94,13,2,0,0.00
2013-8-27,88,77,70,78,71,66,89,82,71,29.94,29.81,9,2,0,0.00
2013-8-28,88,80,74,78,72,69,84,77,70,29.89,29.75,11,2,0,0.00
2013-8-29,87,76,67,76,69,65,94,81,62,29.98,29.89,7,0,0,0.00
2013-8-30,88,77,66,75,69,63,93,77,59,29.90,29.68,11,2,0,0.00
2013-8-31,86,76,71,78,71,67,89,83,74,29.75,29.65,5,1,0,0.15
2013-9-1,78,73,67,72,69,64,92,87,81,29.72,29.66,6,1,0,0.01
2013-9-2,83,72,61,73,66,54,95,81,59,29.82,29.66,6,1,0,0.00
2013-9-3,77,64,56,61,56,52,87,74,57,29.97,29.82,8,1,0,0.00
2013-9-4,82,67,53,65,57,50,90,74,52,30.05,29.96,15,1,0,0.00
2013-9-5,79,67,58,61,54,45,86,65,38,30.14,30.02,9,1,0,0.00
2013-9-6,80,65,48,57,50,44,85,61,40,30.19,30.01,2,0,0,0.00
2013-9-7,86,72,60,68,58,45,71,62,52,30.01,29.83,9,1,0,0.00
2013-9-8,75,70,64,68,64,57,87,80,71,29.94,29.84,6,1,0,0.00
2013-9-9,91,74,60,75,64,54,86,72,55,29.95,29.82,7,1,0,0.00
2013-9-10,97,84,74,77,71,65,86,66,46,29.97,29.86,13,2,0,0.00
2013-9-11,95,82,73,76,68,63,81,64,43,30.00,29.85,15,2,0,0.00
2013-9-12,83,71,60,70,64,54,91,78,50,29.87,29.73,9,1,0,0.43
2013-9-13,63,56,49,55,48,41,86,75,59,30.05,29.87,9,1,0,0.01
2013-9-14,72,54,40,50,43,36,89,68,44,30.14,30.03,4,0,0,0.00
2013-9-15,74,60,49,56,49,42,85,68,46,30.06,29.92,5,0,0,0.30
2013-9-16,66,58,53,56,53,46,91,82,67,30.25,30.03,4,0,0,0.00
2013-9-17,73,58,45,56,48,42,90,71,48,30.29,30.12,7,0,0,0.01
2013-9-18,82,67,55,62,55,47,83,67,45,30.11,29.94,4,0,0,0.00
2013-9-19,80,70,65,72,64,55,91,83,67,29.96,29.84,7,1,0,0.11
2013-9-20,84,72,67,74,68,64,92,87,69,29.86,29.67,13,2,0,0.71
2013-9-21,72,64,52,65,57,45,93,80,58,29.81,29.63,12,2,0,0.29
2013-9-22,66,55,45,51,46,42,90,73,56,29.98,29.81,6,0,0,0.00
2013-9-23,66,54,43,53,46,40,92,74,58,30.09,29.98,5,0,0,0.00
2013-9-24,70,57,45,54,47,41,89,73,54,30.06,29.89,5,0,0,0.00
2013-9-25,73,60,50,59,51,46,89,75,54,29.91,29.82,8,1,0,0.00
2013-9-26,78,61,46,64,52,44,93,75,48,30.03,29.88,6,1,0,0.01
2013-9-27,78,62,45,62,51,41,88,70,47,30.12,30.03,9,1,0,0.00
2013-9-28,81,66,50,63,54,46,89,67,45,30.09,29.94,9,0,0,0.00
2013-9-29,65,62,60,61,57,52,93,82,63,29.95,29.87,11,1,0,0.34
2013-9-30,74,63,57,65,59,56,95,87,70,29.95,29.84,7,0,0,0.00
2013-10-1,75,66,58,68,60,56,94,84,70,29.97,29.90,14,2,0,0.02
2013-10-2,81,70,62,72,64,58,92,82,66,30.02,29.93,10,1,0,0.00
2013-10-3,80,71,65,73,66,62,93,85,72,29.95,29.86,15,2,0,0.62
2013-10-4,83,71,66,73,66,63,92,86,71,29.95,29.88,14,2,0,0.22
2013-10-5,80,71,66,73,68,64,94,88,77,29.95,29.77,9,1,0,0.05
2013-10-6,70,64,53,67,61,49,94,92,88,29.79,29.58,12,2,0,0.52
2013-10-7,60,51,45,51,46,41,90,82,71,30.08,29.70,14,3,0,0.00
2013-10-8,70,56,43,57,47,41,94,75,49,30.22,30.08,4,0,0,0.01
2013-10-9,73,58,45,56,47,41,87,69,47,30.20,30.10,5,0,0,0.00
2013-10-10,75,59,43,56,46,39,89,66,42,30.14,30.02,2,0,0,0.00
2013-10-11,79,61,45,58,49,41,89,68,45,30.06,29.96,4,0,0,0.00
2013-10-12,79,64,50,63,55,46,90,74,57,30.02,29.93,6,0,0,0.00
2013-10-13,71,62,51,58,51,40,86,68,44,30.26,30.02,6,1,0,0.00
2013-10-14,68,51,40,50,42,36,87,73,53,30.30,30.16,7,0,0,0.00
2013-10-15,66,57,47,61,52,42,90,85,77,30.15,29.82,7,1,0,0.05
2013-10-16,63,58,45,61,52,40,91,80,63,29.88,29.77,11,2,0,0.00
2013-10-17,51,47,42,48,43,38,90,87,83,29.87,29.77,10,2,0,0.11
2013-10-18,64,52,43,54,44,38,90,78,58,29.90,29.81,16,4,0,0.00
2013-10-19,51,45,42,45,40,36,90,83,73,29.89,29.76,12,3,0,0.26
2013-10-20,63,51,42,48,42,36,81,71,58,29.90,29.83,15,5,0,0.00
2013-10-21,61,52,41,49,44,35,83,74,65,29.86,29.77,13,4,0,0.02
2013-10-22,50,40,31,35,31,26,83,71,49,29.94,29.84,14,3,0,0.07
2013-10-23,44,38,36,39,35,32,90,86,82,29.95,29.76,5,1,0,0.07
2013-10-24,45,38,34,37,32,30,86,80,72,30.18,29.94,9,2,0,0.02
2013-10-25,49,38,29,40,30,25,86,75,58,30.34,30.16,9,2,0,0.00
2013-10-26,51,43,37,40,33,28,74,68,64,30.15,29.81,25,7,0,0.00
2013-10-27,54,43,36,42,34,30,86,73,54,30.04,29.96,14,2,0,0.00
2013-10-28,59,44,33,44,36,29,87,73,54,30.28,30.02,4,0,0,0.00
2013-10-29,57,46,35,47,39,31,88,77,64,30.34,30.16,2,0,0,0.00
2013-10-30,65,54,42,59,48,37,89,82,73,30.15,29.87,10,1,0,0.00
2013-10-31,64,61,59,61,59,57,92,90,86,29.87,29.14,22,5,0,1.12
2013-11-1,59,51,47,57,46,43,92,85,79,29.64,29.20,19,7,0,0.01
2013-11-2,49,46,44,45,43,41,90,87,82,30.01,29.63,10,2,0,0.07
2013-11-3,50,44,38,43,39,34,90,83,72,30.33,30.01,7,1,0,0.02
2013-11-4,54,45,38,43,38,34,85,75,63,30.36,30.23,7,1,0,0.00
2013-11-5,59,52,46,51,45,40,82,77,71,30.31,30.11,11,1,0,0.00
2013-11-6,58,54,44,54,47,41,89,78,67,30.10,29.82,17,6,0,0.17
2013-11-7,47,42,37,41,36,31,89,78,63,30.15,29.96,11,2,0,0.00
2013-11-8,46,38,31,37,32,28,88,77,65,30.29,30.12,9,1,0,0.00
2013-11-9,60,49,40,46,38,32,75,66,58,30.13,29.85,27,9,0,0.00
2013-11-10,48,42,33,38,33,27,78,71,63,30.26,29.94,12,3,0,0.00
2013-11-11,52,40,28,40,34,25,87,77,64,30.26,29.99,13,4,0,0.07
2013-11-12,34,28,20,27,23,16,88,80,74,30.55,30.28,8,2,0,0.03
2013-11-13,38,29,22,27,22,17,84,75,65,30.54,30.25,16,6,0,0.00
2013-11-14,51,40,30,34,27,22,73,61,48,30.25,30.02,17,8,0,0.00
2013-11-15,50,44,39,34,30,25,70,59,53,30.05,29.98,13,4,0,0.00
2013-11-16,59,51,41,54,46,34,85,82,71,30.03,29.75,12,4,0,0.00
2013-11-17,66,59,48,60,54,42,89,84,77,29.75,29.27,24,10,0,0.67
2013-11-18,48,41,34,42,35,28,84,78,72,30.12,29.59,15,6,0,0.00
2013-11-19,41,36,31,31,28,24,79,73,65,30.32,30.12,7,1,0,0.00
2013-11-20,48,37,28,37,30,23,82,74,65,30.34,30.16,10,1,0,0.00
2013-11-21,48,45,42,46,40,35,91,82,69,30.24,30.11,9,1,0,0.33
2013-11-22,49,43,30,47,41,26,93,90,84,30.33,30.08,14,3,0,0.04
2013-11-23,33,27,18,29,22,10,89,80,68,30.53,30.28,16,4,0,0.01
2013-11-24,26,20,15,18,14,9,81,76,71,30.62,30.45,10,2,0,0.00
2013-11-25,33,27,20,23,19,14,79,72,64,30.46,30.11,17,6,0,0.00
2013-11-26,34,32,30,28,26,22,83,77,66,30.12,29.89,12,2,0,0.00
2013-11-27,30,27,22,25,19,16,82,74,63,30.20,29.88,17,5,0,0.00
2013-11-28,31,27,22,21,20,17,83,73,64,30.38,30.20,14,3,0,0.00
2013-11-29,37,28,20,28,21,14,81,73,65,30.60,30.38,5,0,0,0.00
2013-11-30,49,37,27,36,28,20,78,70,59,30.49,30.07,8,2,0,0.00
2013-12-1,48,39,33,38,31,27,82,73,68,30.07,29.92,7,2,0,0.00
2013-12-2,39,35,31,35,31,26,89,85,82,29.92,29.79,6,1,0,0.07
2013-12-3,50,42,35,46,40,31,92,89,86,29.82,29.74,9,1,0,0.01
2013-12-4,61,53,46,57,50,43,91,89,86,29.80,29.59,10,2,0,0.00
2013-12-5,60,42,28,56,38,24,89,84,80,30.11,29.61,14,5,0,0.00
2013-12-6,30,29,26,26,24,20,88,83,79,30.36,30.08,7,2,0,0.01
2013-12-7,26,23,18,20,17,12,81,78,73,30.58,30.36,10,1,0,0.00
2013-12-8,30,24,18,27,19,13,90,82,76,30.52,29.94,13,2,0,0.00
2013-12-9,31,27,21,29,23,16,91,86,80,30.17,29.90,17,7,0,0.00
2013-12-10,27,20,12,19,13,7,80,75,69,30.25,30.02,30,7,0,0.00
2013-12-11,24,18,8,20,13,3,85,80,74,30.46,30.25,11,3,0,0.00
2013-12-12,21,11,1,13,5,-4,83,76,69,30.49,30.25,14,6,0,0.00
2013-12-13,32,24,16,24,17,8,81,72,69,30.25,30.13,12,2,0,0.00
2013-12-14,31,28,23,29,26,20,92,90,82,30.15,29.71,10,2,0,0.00
2013-12-15,25,19,12,23,16,8,90,86,82,30.07,29.81,14,5,0,0.00
2013-12-16,22,18,12,20,14,8,89,85,83,30.14,29.96,5,1,0,0.00
2013-12-17,28,24,21,25,21,18,91,90,89,30.04,29.93,12,5,0,0.00
2013-12-18,34,24,19,26,19,16,89,83,73,30.18,29.93,15,6,0,0.01
2013-12-19,45,40,34,39,34,26,81,77,71,29.96,29.83,16,5,0,0.26
2013-12-20,56,49,43,54,45,37,93,88,79,29.83,29.67,13,5,0,0.14
2013-12-21,56,42,34,54,40,33,94,93,92,29.76,29.48,11,3,0,3.14
2013-12-22,45,39,35,44,37,33,96,93,90,29.96,29.41,21,6,0,0.21
2013-12-23,35,29,20,32,25,13,90,86,76,30.32,29.96,17,6,0,0.00
2013-12-24,20,14,8,15,9,3,84,80,75,30.52,30.32,11,4,0,0.00
2013-12-25,28,23,16,24,19,12,86,82,78,30.47,30.11,14,4,0,0.00
2013-12-26,33,29,24,27,24,20,89,81,74,30.28,30.06,18,6,0,0.00
2013-12-27,44,37,30,37,30,24,81,77,73,30.31,30.13,18,6,0,0.00
2013-12-28,51,41,36,42,35,31,83,77,69,30.12,29.89,13,6,0,0.00
2013-12-29,45,38,28,37,31,23,82,77,73,29.98,29.67,14,4,0,0.00
2013-12-30,27,24,20,22,17,13,83,76,70,30.20,29.98,12,4,0,0.00
2013-12-31,22,19,14,15,14,9,83,79,76,30.32,30.09,13,5,0,0.00
2014-1-1,25,21,19,20,17,15,92,85,81,30.29,30.06,10,3,0,0.00
2014-1-2,21,15,6,18,12,3,89,88,85,30.26,29.94,15,6,0,0.00